Weather History for Savannah Hunter, GA

Change the Weather History Date:

Saturday, October 6, 2012

  Actual Average Record
Temperature  
Mean Temperature 76 °F -  
Max Temperature 85 °F 78 °F 91 °F (2000)
Min Temperature 69 °F 61 °F 49 °F (2014)
Cooling Degree Days 12    
Growing Degree Days 26 (Base 50)    
Moisture  
Dew Point 71 °F    
Average Humidity 83    
Maximum Humidity 96    
Minimum Humidity 60    
Precipitation  
Precipitation 0.00 in - - ()
Sea Level Pressure  
Sea Level Pressure 29.96 in    
Wind  
Wind Speed 3 mph (West)    
Max Wind Speed 13 mph    
Max Gust Speed -    
Visibility 10 miles    
Events Rain , Thunderstorm    
Averages and records for this station are not official NWS values.
T = Trace of Precipitation, MM = Missing Value Source: NWS Daily Summary

Daily Weather History Graph

Daily Weather History Graph

Search for Another Location

Airport:

Trip Planner

Search our weather history database for the weather conditions in past years. The results will help you decide how hot, cold, wet, or windy it might be!

Date:

Astronomy

Oct. 06, 2012 Rise Set
Actual Time 7:22 AM EDT 7:02 PM EDT
Civil Twilight 6:57 AM EDT 7:26 PM EDT
Nautical Twilight 6:29 AM EDT 7:55 PM EDT
Astronomical Twilight 6:00 AM EDT 8:23 PM EDT
Moon 11:32 PM EDT (10/6) 12:59 PM EDT (10/6)
Length of Visible Light 12h 29m
Length of Day
11h 40m
Waning Gibbous, 65% of the Moon is Illuminated
Oct 6
Waning Gibbous
Oct 8
Last Quarter
Oct 15
New
Oct 21
First Quarter
Oct 29
Full

Hourly Weather History & Observations

Time (EDT) Temp. Heat Index Dew Point Humidity Pressure Visibility Wind Dir Wind Speed Gust Speed Precip Events Conditions
12:55 AM 69.8 °F - 68.4 °F 95% 30.01 in 10.0 mi Calm Calm - N/A   Clear
1:55 AM 69.8 °F - 68.2 °F 95% 30.00 in 10.0 mi WNW 3.5 mph - N/A   Clear
2:55 AM 69.4 °F - 68.4 °F 96% 30.00 in 10.0 mi West 3.5 mph - N/A   Clear
3:55 AM 70.5 °F - 68.7 °F 94% 29.99 in 10.0 mi NW 4.6 mph - N/A   Mostly Cloudy
4:55 AM 71.4 °F - 68.7 °F 91% 29.97 in 10.0 mi Calm Calm - N/A   Overcast
5:55 AM 70.3 °F - 68.5 °F 94% 29.97 in 10.0 mi Calm Calm - N/A   Mostly Cloudy
6:55 AM 70.3 °F - 68.9 °F 95% 29.97 in 10.0 mi NNW 4.6 mph - N/A   Clear
7:55 AM 70.2 °F - 68.5 °F 95% 29.99 in 10.0 mi Calm Calm - N/A   Scattered Clouds
8:55 AM 73.9 °F - 70.5 °F 89% 30.00 in 10.0 mi Calm Calm - N/A   Scattered Clouds
9:10 AM 73.4 °F - 69.8 °F 88% 30.01 in 10.0 mi NW 3.5 mph - N/A   Mostly Cloudy
9:51 AM 75.2 °F - 71.6 °F 89% 30.00 in 10.0 mi Calm Calm - N/A   Scattered Clouds
9:55 AM 75.9 °F - 71.6 °F 86% 30.01 in 10.0 mi NW 3.5 mph - N/A   Scattered Clouds
10:55 AM 79.3 °F - 72.5 °F 79% 30.00 in 10.0 mi NNW 5.8 mph - N/A   Mostly Cloudy
11:55 AM 80.8 °F 84.7 °F 71.6 °F 73% 29.99 in 10.0 mi Calm Calm - N/A   Scattered Clouds
12:20 PM 80.6 °F 84.6 °F 71.6 °F 74% 29.98 in 10.0 mi Calm Calm - N/A   Mostly Cloudy
12:38 PM 82.4 °F 87.2 °F 71.6 °F 70% 29.97 in 10.0 mi Variable 4.6 mph - N/A   Scattered Clouds
12:55 PM 83.5 °F 88.2 °F 70.9 °F 66% 29.97 in 10.0 mi North 5.8 mph - N/A   Scattered Clouds
1:14 PM 82.4 °F 86.3 °F 69.8 °F 66% 29.96 in 10.0 mi NW 5.8 mph - N/A Rain , Thunderstorm Light Rain
1:29 PM 80.6 °F 84.6 °F 71.6 °F 74% 29.95 in 10.0 mi NW 9.2 mph - N/A   Scattered Clouds
1:55 PM 84.2 °F 88.7 °F 70.3 °F 63% 29.94 in 10.0 mi Calm Calm - 0.00 in   Partly Cloudy
2:55 PM 84.0 °F 87.6 °F 68.9 °F 60% 29.91 in 10.0 mi Calm Calm - N/A   Scattered Clouds
3:55 PM 82.8 °F 88.7 °F 73.4 °F 73% 29.91 in 10.0 mi SE 12.7 mph - N/A   Overcast
4:55 PM 79.5 °F - 71.2 °F 76% 29.90 in 10.0 mi ESE 5.8 mph - N/A   Scattered Clouds
5:55 PM 79.9 °F - 72.9 °F 79% 29.90 in 10.0 mi South 4.6 mph - N/A   Scattered Clouds
6:55 PM 78.3 °F - 71.6 °F 80% 29.91 in 10.0 mi SSE 6.9 mph - N/A   Mostly Cloudy
7:55 PM 76.5 °F - 71.8 °F 85% 29.93 in 10.0 mi South 3.5 mph - N/A   Clear
8:55 PM 75.7 °F - 72.3 °F 89% 29.94 in 10.0 mi South 4.6 mph - N/A   Mostly Cloudy
9:55 PM 75.9 °F - 72.1 °F 88% 29.95 in 10.0 mi SSE 3.5 mph - N/A   Clear
10:55 PM 73.6 °F - 71.1 °F 92% 29.96 in 10.0 mi Calm Calm - N/A   Clear
11:55 PM 74.3 °F - 72.0 °F 92% 29.95 in 10.0 mi South 4.6 mph - N/A   Clear